| time (UTC) | temp C | wind direction | speed KPH | gust KPH | rain 1hr cm | rain 24hr cm | rain mn cm | humidity % | barometer mb |
| 20260505124507 | 16 | 160 | 0.0 | 3.2 | 0.00 | 0.00 | 0.00 | 67 | 1017.4 |
| 20260505123607 | 16 | 153 | 0.0 | 1.6 | 0.00 | 0.00 | 0.00 | 65 | 1017.4 |
| 20260505122707 | 15 | 108 | 0.0 | 1.6 | 0.00 | 0.00 | 0.00 | 69 | 1017.4 |
| 20260505121807 | 14 | 167 | 0.0 | 3.2 | 0.00 | 0.00 | 0.00 | 71 | 1017.5 |
| 20260505120907 | 13 | 50 | 0.0 | 3.2 | 0.00 | 0.00 | 0.00 | 73 | 1017.4 |
| 20260505120007 | 13 | 133 | 0.0 | 3.2 | 0.00 | 0.00 | 0.00 | 75 | 1017.4 |
| 20260505115407 | 13 | 99 | 0.0 | 3.2 | 0.00 | 0.00 | 0.00 | 78 | 1017.4 |
| 20260505114527 | 12 | 1 | 0.0 | 1.6 | 0.00 | 0.00 | 0.00 | 77 | 1017.5 |
| 20260505113607 | 12 | 1 | 0.0 | 1.6 | 0.00 | 0.00 | 0.00 | 77 | 1017.4 |
| 20260505112706 | 12 | 1 | 0.0 | 1.6 | 0.00 | 0.00 | 0.00 | 76 | 1017.2 |
| 20260505111806 | 12 | 1 | 0.0 | 1.6 | 0.00 | 0.00 | 0.00 | 75 | 1017.2 |
| 20260505110928 | 12 | 1 | 0.0 | 1.6 | 0.00 | 0.00 | 0.00 | 73 | 1017.1 |
| 20260505101806 | 13 | 1 | 0.0 | 1.6 | 0.00 | 0.00 | 0.00 | 67 | 1016.7 |
| 20260505100927 | 14 | 1 | 0.0 | 3.2 | 0.00 | 0.00 | 0.00 | 65 | 1016.4 |
| 20260505100027 | 15 | 27 | 1.6 | 4.8 | 0.00 | 0.00 | 0.00 | 64 | 1016.3 |
| 20260505095407 | 15 | 358 | 0.0 | 3.2 | 0.00 | 0.00 | 0.00 | 58 | 1016.2 |
| 20260505094506 | 15 | 348 | 1.6 | 4.8 | 0.00 | 0.00 | 0.00 | 60 | 1016.2 |
| 20260505093606 | 14 | 1 | 0.0 | 3.2 | 0.00 | 0.00 | 0.00 | 64 | 1016.4 |
| 20260505092706 | 15 | 359 | 0.0 | 1.6 | 0.00 | 0.00 | 0.00 | 62 | 1016.4 |
| 20260505091806 | 15 | 339 | 0.0 | 1.6 | 0.00 | 0.00 | 0.00 | 60 | 1016.4 |
| 20260505090906 | 15 | 21 | 0.0 | 3.2 | 0.00 | 0.00 | 0.00 | 61 | 1016.4 |
| 20260505090006 | 15 | 13 | 0.0 | 3.2 | 0.00 | 0.00 | 0.00 | 60 | 1016.3 |
| 20260505085406 | 16 | 17 | 0.0 | 1.6 | 0.00 | 0.00 | 0.00 | 56 | 1016.2 |
| 20260505084527 | 16 | 14 | 0.0 | 4.8 | 0.00 | 0.00 | 0.00 | 55 | 1016.2 |
| 20260505083606 | 16 | 24 | 0.0 | 1.6 | 0.00 | 0.00 | 0.00 | 54 | 1016.1 |
| 20260505082705 | 17 | 36 | 0.0 | 6.4 | 0.00 | 0.00 | 0.00 | 52 | 1015.8 |
| 20260505081827 | 17 | 337 | 1.6 | 8.0 | 0.00 | 0.00 | 0.00 | 51 | 1015.7 |
| 20260505080906 | 17 | 42 | 1.6 | 4.8 | 0.00 | 0.00 | 0.00 | 50 | 1015.6 |
| 20260505080006 | 17 | 9 | 1.6 | 8.0 | 0.00 | 0.00 | 0.00 | 49 | 1015.7 |
| 20260505075405 | 18 | 242 | 3.2 | 8.0 | 0.00 | 0.00 | 0.00 | 49 | 1015.6 |
| 20260505074505 | 18 | 298 | 4.8 | 14.5 | 0.00 | 0.00 | 0.00 | 48 | 1015.6 |
| 20260505073627 | 18 | 276 | 4.8 | 17.7 | 0.00 | 0.00 | 0.00 | 48 | 1015.5 |
| 20260505072706 | 17 | 297 | 3.2 | 11.3 | 0.00 | 0.00 | 0.00 | 49 | 1015.4 |
| 20260505071805 | 17 | 175 | 1.6 | 9.7 | 0.00 | 0.00 | 0.00 | 49 | 1015.3 |
| 20260505070905 | 17 | 71 | 1.6 | 8.0 | 0.00 | 0.00 | 0.00 | 49 | 1015.2 |
| 20260505070005 | 17 | 36 | 1.6 | 11.3 | 0.00 | 0.00 | 0.00 | 49 | 1015.2 |
| 20260505065405 | 17 | 87 | 3.2 | 11.3 | 0.00 | 0.00 | 0.00 | 49 | 1015.2 |
| 20260505064505 | 17 | 76 | 1.6 | 8.0 | 0.00 | 0.00 | 0.00 | 49 | 1015.2 |
| 20260505063627 | 17 | 103 | 3.2 | 12.9 | 0.00 | 0.00 | 0.00 | 48 | 1015.1 |
| 20260505062726 | 18 | 177 | 3.2 | 12.9 | 0.00 | 0.00 | 0.00 | 48 | 1015.1 |
| 20260505061805 | 18 | 173 | 3.2 | 14.5 | 0.00 | 0.00 | 0.00 | 47 | 1015.2 |
| 20260505060905 | 18 | 211 | 3.2 | 24.1 | 0.00 | 0.00 | 0.00 | 45 | 1015.2 |
| 20260505060005 | 18 | 188 | 3.2 | 16.1 | 0.00 | 0.00 | 0.00 | 48 | 1015.2 |
| 20260505055405 | 18 | 169 | 3.2 | 24.1 | 0.00 | 0.00 | 0.00 | 46 | 1015.2 |
| 20260505054505 | 18 | 204 | 4.8 | 24.1 | 0.00 | 0.00 | 0.00 | 45 | 1015.3 |
| 20260505053605 | 18 | 212 | 4.8 | 19.3 | 0.00 | 0.00 | 0.00 | 45 | 1015.2 |
| 20260505052705 | 18 | 211 | 3.2 | 17.7 | 0.00 | 0.00 | 0.00 | 44 | 1015.2 |
| 20260505051805 | 18 | 172 | 4.8 | 20.9 | 0.00 | 0.00 | 0.00 | 44 | 1015.2 |
| 20260505050905 | 18 | 186 | 4.8 | 17.7 | 0.00 | 0.00 | 0.00 | 44 | 1015.2 |
| 20260505040905 | 18 | 248 | 3.2 | 17.7 | 0.00 | 0.00 | 0.00 | 45 | 1015.1 |
| 20260505040005 | 18 | 249 | 4.8 | 16.1 | 0.00 | 0.00 | 0.00 | 45 | 1015.2 |
| 20260505035404 | 18 | 216 | 3.2 | 14.5 | 0.00 | 0.00 | 0.00 | 45 | 1015.1 |
| 20260505034526 | 18 | 169 | 3.2 | 11.3 | 0.00 | 0.00 | 0.00 | 46 | 1015.2 |
| 20260505033604 | 18 | 203 | 4.8 | 16.1 | 0.00 | 0.00 | 0.00 | 46 | 1015.3 |
| 20260505032705 | 18 | 210 | 3.2 | 16.1 | 0.00 | 0.00 | 0.00 | 46 | 1015.3 |
| 20260505031804 | 18 | 209 | 3.2 | 14.5 | 0.00 | 0.00 | 0.00 | 47 | 1015.3 |
| 20260505030925 | 18 | 207 | 3.2 | 16.1 | 0.00 | 0.00 | 0.00 | 48 | 1015.3 |
| 20260505030025 | 18 | 181 | 3.2 | 14.5 | 0.00 | 0.00 | 0.00 | 50 | 1015.3 |
| 20260505025404 | 18 | 181 | 3.2 | 12.9 | 0.00 | 0.00 | 0.00 | 50 | 1015.5 |
| 20260505024505 | 18 | 229 | 3.2 | 11.3 | 0.00 | 0.00 | 0.00 | 50 | 1015.5 |
| 20260505023604 | 18 | 181 | 1.6 | 8.0 | 0.00 | 0.00 | 0.00 | 52 | 1015.5 |
| 20260505022704 | 18 | 213 | 1.6 | 11.3 | 0.00 | 0.00 | 0.00 | 51 | 1015.6 |
| 20260505021804 | 18 | 235 | 3.2 | 16.1 | 0.00 | 0.00 | 0.00 | 52 | 1015.5 |
| 20260505020904 | 18 | 227 | 3.2 | 16.1 | 0.00 | 0.00 | 0.00 | 51 | 1015.6 |
| 20260505020004 | 18 | 213 | 1.6 | 11.3 | 0.00 | 0.00 | 0.00 | 52 | 1015.7 |
| 20260505015404 | 18 | 179 | 1.6 | 11.3 | 0.00 | 0.00 | 0.00 | 53 | 1015.6 |
| 20260505014525 | 18 | 189 | 1.6 | 11.3 | 0.00 | 0.00 | 0.00 | 53 | 1015.6 |
| 20260505013604 | 18 | 131 | 1.6 | 8.0 | 0.00 | 0.00 | 0.00 | 53 | 1015.4 |
| 20260505012704 | 18 | 168 | 1.6 | 6.4 | 0.00 | 0.00 | 0.00 | 53 | 1015.4 |
| 20260505011804 | 19 | 172 | 1.6 | 6.4 | 0.00 | 0.00 | 0.00 | 52 | 1015.3 |
| 20260505010904 | 19 | 183 | 1.6 | 8.0 | 0.00 | 0.00 | 0.00 | 52 | 1015.2 |
| 20260505010004 | 19 | 195 | 1.6 | 6.4 | 0.00 | 0.00 | 0.00 | 52 | 1015.0 |
| 20260505005404 | 19 | 194 | 1.6 | 6.4 | 0.00 | 0.00 | 0.00 | 52 | 1015.0 |
| 20260505004504 | 20 | 205 | 1.6 | 4.8 | 0.00 | 0.00 | 0.00 | 51 | 1014.8 |
| 20260505003604 | 20 | 221 | 0.0 | 3.2 | 0.00 | 0.00 | 0.00 | 51 | 1014.7 |
| 20260505002703 | 20 | 246 | 0.0 | 3.2 | 0.00 | 0.00 | 0.00 | 49 | 1014.6 |
| 20260505001803 | 20 | 235 | 0.0 | 3.2 | 0.00 | 0.00 | 0.00 | 47 | 1014.5 |
| 20260505000903 | 21 | 347 | 0.0 | 1.6 | 0.00 | 0.00 | 0.00 | 44 | 1014.5 |
| 20260505000025 | 21 | 295 | 0.0 | 4.8 | 0.00 | 0.00 | 0.00 | 43 | 1014.4 |
| 20260504235403 | 21 | 315 | 0.0 | 4.8 | 0.00 | 0.00 | 0.00 | 42 | 1014.4 |
| 20260504234503 | 22 | 325 | 1.6 | 4.8 | 0.00 | 0.00 | 0.00 | 41 | 1014.3 |
| 20260504233603 | 22 | 318 | 0.0 | 4.8 | 0.00 | 0.00 | 0.00 | 41 | 1014.2 |
| 20260504232724 | 22 | 272 | 1.6 | 12.9 | 0.00 | 0.00 | 0.00 | 41 | 1014.1 |
| 20260504231803 | 22 | 328 | 3.2 | 8.0 | 0.00 | 0.00 | 0.00 | 40 | 1014.2 |
| 20260504230903 | 22 | 345 | 3.2 | 6.4 | 0.00 | 0.00 | 0.00 | 39 | 1014.1 |
| 20260504230003 | 23 | 292 | 1.6 | 8.0 | 0.00 | 0.00 | 0.00 | 38 | 1014.1 |
| 20260504225403 | 23 | 299 | 4.8 | 12.9 | 0.00 | 0.00 | 0.00 | 38 | 1014.2 |
| 20260504224524 | 23 | 312 | 4.8 | 14.5 | 0.00 | 0.00 | 0.00 | 37 | 1014.2 |
| 20260504223624 | 24 | 311 | 3.2 | 14.5 | 0.00 | 0.00 | 0.00 | 36 | 1014.3 |
| 20260504222725 | 25 | 245 | 1.6 | 11.3 | 0.00 | 0.00 | 0.00 | 38 | 1014.2 |
| 20260504221825 | 25 | 227 | 1.6 | 8.0 | 0.00 | 0.00 | 0.00 | 38 | 1014.2 |
| 20260504220924 | 25 | 300 | 3.2 | 16.1 | 0.00 | 0.00 | 0.00 | 37 | 1014.3 |
| 20260504220024 | 24 | 266 | 4.8 | 14.5 | 0.00 | 0.00 | 0.00 | 38 | 1014.4 |
| 20260504215424 | 25 | 276 | 4.8 | 17.7 | 0.00 | 0.00 | 0.00 | 38 | 1014.5 |
| 20260504214524 | 25 | 207 | 3.2 | 17.7 | 0.00 | 0.00 | 0.00 | 37 | 1014.6 |
| 20260504213645 | 25 | 218 | 3.2 | 16.1 | 0.00 | 0.00 | 0.00 | 37 | 1014.5 |
| 20260504212724 | 25 | 258 | 4.8 | 16.1 | 0.00 | 0.00 | 0.00 | 41 | 1014.6 |
| 20260504211824 | 25 | 163 | 3.2 | 11.3 | 0.00 | 0.00 | 0.00 | 40 | 1014.6 |
| 20260504210945 | 25 | 155 | 3.2 | 12.9 | 0.00 | 0.00 | 0.00 | 40 | 1014.5 |
| 20260504210024 | 25 | 242 | 3.2 | 11.3 | 0.00 | 0.00 | 0.00 | 39 | 1014.4 |
| 20260504205424 | 25 | 195 | 3.2 | 11.3 | 0.00 | 0.00 | 0.00 | 43 | 1014.4 |
| 20260504204545 | 24 | 187 | 3.2 | 9.7 | 0.00 | 0.00 | 0.00 | 41 | 1014.5 |
| 20260504203624 | 23 | 265 | 3.2 | 9.7 | 0.00 | 0.00 | 0.00 | 43 | 1014.5 |
| 20260504202723 | 23 | 175 | 1.6 | 6.4 | 0.00 | 0.00 | 0.00 | 48 | 1014.5 |
| 20260504201823 | 22 | 289 | 4.8 | 14.5 | 0.00 | 0.00 | 0.00 | 45 | 1014.7 |
| 20260504200924 | 23 | 290 | 1.6 | 4.8 | 0.00 | 0.00 | 0.00 | 49 | 1015.0 |
| 20260504200023 | 23 | 248 | 3.2 | 9.7 | 0.00 | 0.00 | 0.00 | 43 | 1014.9 |
| 20260504195424 | 23 | 164 | 3.2 | 9.7 | 0.00 | 0.00 | 0.00 | 45 | 1015.0 |
| 20260504194523 | 23 | 239 | 0.0 | 4.8 | 0.00 | 0.00 | 0.00 | 47 | 1015.1 |
| 20260504193644 | 22 | 163 | 1.6 | 9.7 | 0.00 | 0.00 | 0.00 | 48 | 1015.2 |
| 20260504192724 | 22 | 137 | 1.6 | 9.7 | 0.00 | 0.00 | 0.00 | 48 | 1015.4 |
| 20260504191823 | 22 | 178 | 1.6 | 8.0 | 0.00 | 0.00 | 0.00 | 45 | 1015.5 |
| 20260504190923 | 22 | 175 | 3.2 | 9.7 | 0.00 | 0.00 | 0.00 | 46 | 1015.5 |
| 20260504190024 | 22 | 168 | 3.2 | 8.0 | 0.00 | 0.00 | 0.00 | 46 | 1015.6 |
| 20260504185423 | 22 | 207 | 3.2 | 8.0 | 0.00 | 0.00 | 0.00 | 48 | 1015.7 |
| 20260504184544 | 22 | 184 | 3.2 | 6.4 | 0.00 | 0.00 | 0.00 | 46 | 1015.7 |
| 20260504183623 | 21 | 227 | 1.6 | 11.3 | 0.00 | 0.00 | 0.00 | 49 | 1016.1 |
| 20260504182724 | 21 | 273 | 1.6 | 11.3 | 0.00 | 0.00 | 0.00 | 46 | 1016.3 |
| 20260504181823 | 21 | 275 | 1.6 | 11.3 | 0.00 | 0.00 | 0.00 | 46 | 1016.5 |
| 20260504180944 | 21 | 234 | 1.6 | 8.0 | 0.00 | 0.00 | 0.00 | 47 | 1016.5 |
| 20260504180023 | 20 | 210 | 3.2 | 12.9 | 0.00 | 0.00 | 0.00 | 48 | 1016.6 |
| 20260504175423 | 21 | 240 | 3.2 | 12.9 | 0.00 | 0.00 | 0.00 | 47 | 1016.7 |
| 20260504174523 | 21 | 357 | 1.6 | 4.8 | 0.00 | 0.00 | 0.00 | 47 | 1016.6 |
| 20260504173623 | 21 | 289 | 3.2 | 9.7 | 0.00 | 0.00 | 0.00 | 47 | 1016.7 |
| 20260504172723 | 21 | 265 | 3.2 | 12.9 | 0.00 | 0.00 | 0.00 | 43 | 1016.7 |
| 20260504171822 | 21 | 251 | 3.2 | 11.3 | 0.00 | 0.00 | 0.00 | 42 | 1016.7 |
| 20260504170923 | 22 | 223 | 3.2 | 9.7 | 0.00 | 0.00 | 0.00 | 42 | 1016.7 |
| 20260504150922 | 18 | 22 | 3.2 | 16.1 | 0.00 | 0.00 | 0.00 | 48 | 1018.2 |